When you browse on this site, cookies collect data to enhance your experience and personalize the content and advertising you see.
Visit our Privacy Policy to learn more. By continuing to use the site, you agree to this use of cookies and data.
  • în România
  • Lista ţărilor
  • Pe 7 zile
  • Temperatura apei
  • Meteo pe hartă
  • Widget-uri
  • user-avatar
    Intrare

    Meteo pe oră la Saurimo

    Astăzi, 3 Iunie, Miercuri

    Timp Temperatura Precipitaţii Vânt Presiune Umiditate
    00:00 +19°C° 0 mm 2 m/s 671 mmHg 54%
    01:00 +20°C° 0 mm 1 m/s 671 mmHg 54%
    02:00 +18°C° 0 mm 2 m/s 671 mmHg 55%
    03:00 +18°C° 0 mm 2 m/s 671 mmHg 55%
    04:00 +17°C° 0 mm 2 m/s 671 mmHg 56%
    05:00 +18°C° 0 mm 2 m/s 671 mmHg 52%
    06:00 +18°C° 0 mm 3 m/s 671 mmHg 48%
    07:00 +19°C° 0 mm 3 m/s 672 mmHg 44%
    08:00 +21°C° 0 mm 3 m/s 672 mmHg 40%
    09:00 +25°C° 0 mm 3 m/s 673 mmHg 36%
    10:00 +28°C° 0 mm 3 m/s 673 mmHg 31%
    11:00 +29°C° 0 mm 3 m/s 673 mmHg 30%
    12:00 +31°C° 0 mm 2 m/s 673 mmHg 28%
    13:00 +32°C° 0 mm 2 m/s 672 mmHg 27%
    14:00 +32°C° 0 mm 2 m/s 672 mmHg 28%
    15:00 +31°C° 0 mm 1 m/s 671 mmHg 29%
    16:00 +30°C° 0 mm 1 m/s 671 mmHg 31%
    17:00 +28°C° 0 mm 1 m/s 671 mmHg 35%
    18:00 +26°C° 0 mm 1 m/s 671 mmHg 40%
    19:00 +24°C° 0 mm 1 m/s 671 mmHg 44%
    20:00 +23°C° 0 mm 1 m/s 671 mmHg 46%
    21:00 +22°C° 0 mm 1 m/s 671 mmHg 48%
    22:00 +21°C° 0 mm 1 m/s 671 mmHg 50%
    23:00 +21°C° 0 mm 1 m/s 671 mmHg 51%

    Mâine, 4 Iunie, Joi

    Timp Temperatura Precipitaţii Vânt Presiune Umiditate
    00:00 +21°C° 0 mm 1 m/s 671 mmHg 52%
    01:00 +20°C° 0 mm 1 m/s 670 mmHg 53%
    02:00 +20°C° 0 mm 1 m/s 670 mmHg 53%
    03:00 +19°C° 0 mm 1 m/s 670 mmHg 54%
    04:00 +19°C° 0 mm 1 m/s 670 mmHg 54%
    05:00 +19°C° 0 mm 2 m/s 671 mmHg 53%
    06:00 +19°C° 0 mm 2 m/s 671 mmHg 51%
    07:00 +20°C° 0 mm 3 m/s 672 mmHg 50%
    08:00 +21°C° 0 mm 3 m/s 672 mmHg 47%
    09:00 +22°C° 0 mm 3 m/s 672 mmHg 45%
    10:00 +25°C° 0 mm 3 m/s 673 mmHg 43%
    11:00 +27°C° 0 mm 2 m/s 673 mmHg 38%
    12:00 +30°C° 0 mm 2 m/s 673 mmHg 34%
    13:00 +34°C° 0 mm 2 m/s 673 mmHg 29%
    14:00 +32°C° 0 mm 1 m/s 672 mmHg 30%
    15:00 +32°C° 0 mm 1 m/s 672 mmHg 30%
    16:00 +29°C° 0 mm 0 m/s 671 mmHg 31%
    17:00 +27°C° 0 mm 0 m/s 671 mmHg 35%
    18:00 +27°C° 0 mm 1 m/s 671 mmHg 39%
    19:00 +25°C° 0 mm 1 m/s 671 mmHg 43%
    20:00 +24°C° 0 mm 1 m/s 671 mmHg 45%
    21:00 +23°C° 0 mm 1 m/s 671 mmHg 48%
    22:00 +22°C° 0 mm 1 m/s 671 mmHg 51%
    23:00 +21°C° 0 mm 1 m/s 671 mmHg 53%

    Poimâine, 5 Iunie, Vineri

    Timp Temperatura Precipitaţii Vânt Presiune Umiditate
    00:00 +21°C° 0 mm 1 m/s 671 mmHg 54%
    01:00 +21°C° 0 mm 1 m/s 671 mmHg 56%
    02:00 +20°C° 0 mm 1 m/s 671 mmHg 57%
    03:00 +20°C° 0 mm 1 m/s 671 mmHg 59%
    04:00 +18°C° 0 mm 2 m/s 671 mmHg 61%
    05:00 +19°C° 0 mm 2 m/s 671 mmHg 61%
    06:00 +19°C° 0 mm 2 m/s 672 mmHg 60%
    07:00 +20°C° 0 mm 2 m/s 673 mmHg 59%
    08:00 +24°C° 0 mm 2 m/s 673 mmHg 51%
    09:00 +27°C° 0 mm 2 m/s 674 mmHg 43%
    10:00 +31°C° 0 mm 2 m/s 674 mmHg 35%
    11:00 +32°C° 0 mm 2 m/s 674 mmHg 32%
    12:00 +34°C° 0 mm 2 m/s 674 mmHg 28%
    13:00 +35°C° 0 mm 1 m/s 673 mmHg 25%
    14:00 +34°C° 0 mm 1 m/s 673 mmHg 27%
    15:00 +33°C° 0 mm 1 m/s 672 mmHg 29%
    16:00 +31°C° 0 mm 1 m/s 671 mmHg 31%
    17:00 +29°C° 0 mm 1 m/s 671 mmHg 35%
    18:00 +27°C° 0 mm 2 m/s 671 mmHg 38%
    19:00 +25°C° 0 mm 2 m/s 671 mmHg 42%
    20:00 +24°C° 0 mm 2 m/s 672 mmHg 43%
    21:00 +23°C° 0 mm 2 m/s 672 mmHg 45%
    22:00 +21°C° 0 mm 2 m/s 672 mmHg 46%
    23:00 +21°C° 0 mm 2 m/s 672 mmHg 47%

    6 Iunie, Sâmbătă

    Timp Temperatura Precipitaţii Vânt Presiune Umiditate
    00:00 +21°C° 0 mm 2 m/s 671 mmHg 47%
    01:00 +20°C° 0 mm 2 m/s 671 mmHg 48%
    02:00 +20°C° 0 mm 2 m/s 671 mmHg 49%
    03:00 +19°C° 0 mm 2 m/s 671 mmHg 50%
    04:00 +19°C° 0 mm 2 m/s 671 mmHg 51%
    05:00 +19°C° 0 mm 3 m/s 671 mmHg 49%
    06:00 +20°C° 0 mm 3 m/s 672 mmHg 47%
    07:00 +20°C° 0 mm 3 m/s 673 mmHg 44%
    08:00 +23°C° 0 mm 4 m/s 673 mmHg 38%
    09:00 +27°C° 0 mm 4 m/s 674 mmHg 32%
    10:00 +30°C° 0 mm 4 m/s 674 mmHg 26%
    11:00 +32°C° 0 mm 4 m/s 674 mmHg 25%
    12:00 +33°C° 0 mm 3 m/s 673 mmHg 23%
    13:00 +34°C° 0 mm 3 m/s 673 mmHg 21%
    14:00 +34°C° 0 mm 3 m/s 672 mmHg 22%
    15:00 +33°C° 0 mm 3 m/s 672 mmHg 23%
    16:00 +32°C° 0 mm 2 m/s 671 mmHg 23%
    17:00 +29°C° 0 mm 2 m/s 671 mmHg 28%
    18:00 +26°C° 0 mm 2 m/s 671 mmHg 32%
    19:00 +24°C° 0 mm 1 m/s 671 mmHg 36%
    20:00 +23°C° 0 mm 1 m/s 671 mmHg 38%
    21:00 +22°C° 0 mm 1 m/s 672 mmHg 40%
    22:00 +20°C° 0 mm 2 m/s 672 mmHg 42%
    23:00 +19°C° 0 mm 2 m/s 671 mmHg 42%

    7 Iunie, Duminică

    Timp Temperatura Precipitaţii Vânt Presiune Umiditate
    00:00 +19°C° 0 mm 2 m/s 671 mmHg 43%
    01:00 +18°C° 0 mm 2 m/s 671 mmHg 43%
    02:00 +18°C° 0 mm 2 m/s 671 mmHg 42%
    03:00 +18°C° 0 mm 2 m/s 671 mmHg 42%
    04:00 +17°C° 0 mm 3 m/s 671 mmHg 41%
    05:00 +18°C° 0 mm 3 m/s 671 mmHg 41%
    06:00 +18°C° 0 mm 3 m/s 672 mmHg 41%
    07:00 +19°C° 0 mm 3 m/s 672 mmHg 41%
    08:00 +21°C° 0 mm 4 m/s 673 mmHg 36%
    09:00 +25°C° 0 mm 4 m/s 674 mmHg 32%
    10:00 +28°C° 0 mm 4 m/s 674 mmHg 27%
    11:00 +30°C° 0 mm 4 m/s 674 mmHg 25%
    12:00 +31°C° 0 mm 3 m/s 673 mmHg 22%
    13:00 +32°C° 0 mm 2 m/s 673 mmHg 20%
    14:00 +32°C° 0 mm 2 m/s 672 mmHg 20%
    15:00 +31°C° 0 mm 2 m/s 672 mmHg 21%
    16:00 +31°C° 0 mm 2 m/s 671 mmHg 22%
    17:00 +28°C° 0 mm 2 m/s 671 mmHg 26%
    18:00 +25°C° 0 mm 2 m/s 671 mmHg 31%
    19:00 +21°C° 0 mm 2 m/s 671 mmHg 36%
    20:00 +20°C° 0 mm 2 m/s 671 mmHg 37%
    21:00 +20°C° 0 mm 2 m/s 671 mmHg 39%
    22:00 +19°C° 0 mm 2 m/s 671 mmHg 40%
    23:00 +18°C° 0 mm 2 m/s 671 mmHg 41%

    8 Iunie, Luni

    Timp Temperatura Precipitaţii Vânt Presiune Umiditate
    00:00 +18°C° 0 mm 2 m/s 671 mmHg 43%
    01:00 +18°C° 0 mm 2 m/s 670 mmHg 44%
    02:00 +17°C° 0 mm 2 m/s 670 mmHg 46%
    03:00 +17°C° 0 mm 2 m/s 670 mmHg 47%
    04:00 +16°C° 0 mm 2 m/s 670 mmHg 49%
    05:00 +17°C° 0 mm 3 m/s 671 mmHg 49%
    06:00 +17°C° 0 mm 3 m/s 671 mmHg 48%
    07:00 +18°C° 0 mm 3 m/s 672 mmHg 48%
    08:00 +21°C° 0 mm 4 m/s 672 mmHg 42%
    09:00 +25°C° 0 mm 4 m/s 673 mmHg 36%
    10:00 +28°C° 0 mm 4 m/s 673 mmHg 30%
    11:00 +29°C° 0 mm 4 m/s 673 mmHg 28%
    12:00 +30°C° 0 mm 3 m/s 672 mmHg 25%
    13:00 +31°C° 0 mm 2 m/s 672 mmHg 23%
    14:00 +31°C° 0 mm 2 m/s 671 mmHg 23%
    15:00 +30°C° 0 mm 2 m/s 671 mmHg 24%
    16:00 +30°C° 0 mm 2 m/s 671 mmHg 24%
    17:00 +27°C° 0 mm 2 m/s 670 mmHg 29%
    18:00 +25°C° 0 mm 2 m/s 670 mmHg 34%
    19:00 +22°C° 0 mm 1 m/s 670 mmHg 39%
    20:00 +21°C° 0 mm 1 m/s 670 mmHg 42%
    21:00 +20°C° 0 mm 1 m/s 670 mmHg 44%
    22:00 +19°C° 0 mm 1 m/s 670 mmHg 47%
    23:00 +18°C° 0 mm 2 m/s 670 mmHg 48%
    Arată mai mult